Location: ??????
(38.0131°N, 23.7723°E)
Time: 06:18:48
(UTC+00:00)

Cosmos 489 Rocket - Pass Details

Date: 17 October 2021
Orbit: 953 x 983 km, 74.0° (Epoch: 28 November)

Event Time Altitude Azimuth Distance (km) Brightness Sun altitude
Rises 17:40:36 0° 340° (NNW) 3,636 7.8 -23.6°
Reaches altitude 10° 17:43:07 10° 339° (NNW) 2,686 7.1 -24.1°
Maximum altitude 17:49:19 78° 254° (WSW) 978 4.5 -25.3°
Enters shadow 17:53:27 22° 171° (S) 1,937 5.9 -26.1°
